Time,TemperatureF,DewpointF,PressureIn,WindDirection,WindDirectionDegrees,WindSpeedMPH,WindSpeedGustMPH,Humidity,HourlyPrecipIn,Conditions,Clouds,dailyrainin,SolarRadiationWatts/m^2,SoftwareType,DateUTC
2013-08-23 00:07:00,62.1,54.0,29.77,South,189,7.0,11.0,76,0.00,,,0.00,0,weatherlink.com 1.10,2013-08-23 07:07:00,
2013-08-23 00:22:00,62.2,55.0,29.77,South,188,6.0,12.0,76,0.00,,,0.00,0,weatherlink.com 1.10,2013-08-23 07:22:00,
2013-08-23 00:37:00,62.2,55.0,29.77,South,175,9.0,17.0,77,0.00,,,0.00,0,weatherlink.com 1.10,2013-08-23 07:37:00,
2013-08-23 00:52:00,61.7,55.0,29.78,SSW,196,11.0,17.0,78,0.00,,,0.00,0,weatherlink.com 1.10,2013-08-23 07:52:00,
2013-08-23 01:22:00,61.4,55.0,29.78,SSW,200,5.0,15.0,79,0.00,,,0.00,0,weatherlink.com 1.10,2013-08-23 08:22:00,
2013-08-23 01:37:00,61.4,55.0,29.78,SSW,194,6.0,17.0,78,0.00,,,0.00,0,weatherlink.com 1.10,2013-08-23 08:37:00,
2013-08-23 01:53:00,61.4,55.0,29.77,South,172,11.0,16.0,79,0.00,,,0.00,0,weatherlink.com 1.10,2013-08-23 08:53:00,
2013-08-23 02:08:00,61.1,55.0,29.78,SSE,161,7.0,16.0,80,0.00,,,0.00,0,weatherlink.com 1.10,2013-08-23 09:08:00,
2013-08-23 02:23:00,60.4,55.0,29.78,South,175,8.0,15.0,81,0.00,,,0.00,0,weatherlink.com 1.10,2013-08-23 09:23:00,
2013-08-23 02:38:00,59.6,54.0,29.77,SSE,161,6.0,14.0,83,0.00,,,0.00,0,weatherlink.com 1.10,2013-08-23 09:38:00,
2013-08-23 02:53:00,59.4,55.0,29.78,SSE,155,6.0,13.0,84,0.00,,,0.00,0,weatherlink.com 1.10,2013-08-23 09:53:00,
2013-08-23 03:08:00,59.7,55.0,29.79,SSE,158,4.0,16.0,84,0.00,,,0.00,0,weatherlink.com 1.10,2013-08-23 10:08:00,
2013-08-23 03:23:00,59.7,55.0,29.79,SSE,167,7.0,15.0,83,0.00,,,0.00,0,weatherlink.com 1.10,2013-08-23 10:23:00,
2013-08-23 03:38:00,59.5,55.0,29.79,SSE,168,4.0,14.0,84,0.00,,,0.00,0,weatherlink.com 1.10,2013-08-23 10:38:00,
2013-08-23 03:53:00,59.5,55.0,29.79,South,188,4.0,14.0,84,0.00,,,0.00,0,weatherlink.com 1.10,2013-08-23 10:53:00,
2013-08-23 04:08:00,58.8,55.0,29.79,SSE,156,8.0,16.0,86,0.00,,,0.00,0,weatherlink.com 1.10,2013-08-23 11:08:00,
2013-08-23 04:23:00,58.5,55.0,29.79,SSE,167,10.0,17.0,87,0.00,,,0.00,0,weatherlink.com 1.10,2013-08-23 11:23:00,
2013-08-23 04:38:00,58.0,55.0,29.79,South,172,7.0,15.0,88,0.00,,,0.00,0,weatherlink.com 1.10,2013-08-23 11:38:00,
2013-08-23 04:53:00,57.8,55.0,29.79,South,184,5.0,16.0,89,0.00,,,0.00,0,weatherlink.com 1.10,2013-08-23 11:53:00,
2013-08-23 05:08:00,57.7,55.0,29.80,South,171,8.0,17.0,90,0.00,,,0.00,0,weatherlink.com 1.10,2013-08-23 12:08:00,
2013-08-23 05:23:00,57.6,55.0,29.79,South,178,7.0,17.0,90,0.00,,,0.00,0,weatherlink.com 1.10,2013-08-23 12:23:00,
2013-08-23 05:38:00,57.3,55.0,29.80,SSE,156,10.0,17.0,91,0.00,,,0.00,0,weatherlink.com 1.10,2013-08-23 12:38:00,
2013-08-23 05:53:00,57.1,55.0,29.80,SSE,151,8.0,18.0,91,0.00,,,0.00,0,weatherlink.com 1.10,2013-08-23 12:53:00,
2013-08-23 06:08:00,56.9,55.0,29.79,South,170,10.0,14.0,92,0.00,,,0.00,0,weatherlink.com 1.10,2013-08-23 13:08:00,
2013-08-23 06:23:00,56.7,55.0,29.80,South,172,9.0,18.0,93,0.00,,,0.00,0,weatherlink.com 1.10,2013-08-23 13:23:00,
2013-08-23 06:38:00,56.6,55.0,29.79,SSE,159,10.0,17.0,93,0.00,,,0.00,11,weatherlink.com 1.10,2013-08-23 13:38:00,
2013-08-23 06:53:00,56.5,55.0,29.80,South,173,11.0,15.0,93,0.00,,,0.00,21,weatherlink.com 1.10,2013-08-23 13:53:00,
2013-08-23 07:08:00,56.5,55.0,29.79,SE,135,5.0,17.0,93,0.00,,,0.00,37,weatherlink.com 1.10,2013-08-23 14:08:00,
2013-08-23 07:23:00,56.6,55.0,29.80,SSE,163,10.0,16.0,94,0.00,,,0.00,70,weatherlink.com 1.10,2013-08-23 14:23:00,
2013-08-23 07:39:00,56.9,55.0,29.80,SSE,156,5.0,14.0,94,0.00,,,0.00,98,weatherlink.com 1.10,2013-08-23 14:39:00,
2013-08-23 07:53:00,57.3,56.0,29.81,SSE,151,4.0,17.0,94,0.00,,,0.00,118,weatherlink.com 1.10,2013-08-23 14:53:00,
2013-08-23 08:10:00,58.0,56.0,29.82,SSW,197,7.0,17.0,94,0.00,,,0.00,213,weatherlink.com 1.10,2013-08-23 15:10:00,
2013-08-23 08:25:00,59.4,57.0,29.82,South,169,6.0,16.0,92,0.00,,,0.00,230,weatherlink.com 1.10,2013-08-23 15:25:00,
2013-08-23 08:39:00,59.5,57.0,29.82,South,186,11.0,15.0,90,0.00,,,0.00,165,weatherlink.com 1.10,2013-08-23 15:39:00,
2013-08-23 08:54:00,59.6,57.0,29.82,SE,146,9.0,15.0,90,0.00,,,0.00,162,weatherlink.com 1.10,2013-08-23 15:54:00,
2013-08-23 09:10:00,59.7,57.0,29.82,SSW,194,8.0,17.0,90,0.00,,,0.00,179,weatherlink.com 1.10,2013-08-23 16:10:00,
2013-08-23 09:25:00,60.3,57.0,29.82,SSW,194,8.0,17.0,89,0.00,,,0.00,315,weatherlink.com 1.10,2013-08-23 16:25:00,
2013-08-23 09:39:00,60.8,57.0,29.82,SSE,161,6.0,17.0,88,0.00,,,0.00,234,weatherlink.com 1.10,2013-08-23 16:39:00,
2013-08-23 09:56:00,63.0,59.0,29.83,SSW,210,11.0,18.0,85,0.00,,,0.00,513,weatherlink.com 1.10,2013-08-23 16:56:00,
2013-08-23 10:10:00,63.5,59.0,29.83,South,175,13.0,18.0,84,0.00,,,0.00,404,weatherlink.com 1.10,2013-08-23 17:10:00,
2013-08-23 10:25:00,63.3,58.0,29.83,South,177,5.0,18.0,83,0.00,,,0.00,555,weatherlink.com 1.10,2013-08-23 17:25:00,
2013-08-23 10:41:00,64.3,58.0,29.84,SSE,167,8.0,18.0,81,0.00,,,0.00,531,weatherlink.com 1.10,2013-08-23 17:41:00,
2013-08-23 10:56:00,63.6,58.0,29.84,SSE,159,7.0,22.0,81,0.00,,,0.00,396,weatherlink.com 1.10,2013-08-23 17:56:00,
2013-08-23 11:12:00,63.1,58.0,29.85,SSE,158,12.0,20.0,82,0.00,,,0.00,417,weatherlink.com 1.10,2013-08-23 18:12:00,
2013-08-23 11:27:00,64.2,58.0,29.84,South,186,7.0,18.0,81,0.00,,,0.00,348,weatherlink.com 1.10,2013-08-23 18:27:00,
2013-08-23 11:41:00,64.8,59.0,29.84,South,176,9.0,21.0,80,0.00,,,0.00,714,weatherlink.com 1.10,2013-08-23 18:41:00,
2013-08-23 11:56:00,64.7,58.0,29.84,South,172,13.0,21.0,79,0.00,,,0.00,541,weatherlink.com 1.10,2013-08-23 18:56:00,
2013-08-23 12:12:00,65.2,58.0,29.84,SSE,155,10.0,21.0,78,0.00,,,0.00,568,weatherlink.com 1.10,2013-08-23 19:12:00,
2013-08-23 12:26:00,66.1,58.0,29.84,South,175,10.0,22.0,75,0.00,,,0.00,559,weatherlink.com 1.10,2013-08-23 19:26:00,
2013-08-23 12:41:00,66.6,58.0,29.84,South,184,7.0,18.0,74,0.00,,,0.00,524,weatherlink.com 1.10,2013-08-23 19:41:00,
2013-08-23 12:56:00,67.5,58.0,29.84,SSE,157,13.0,19.0,72,0.00,,,0.00,399,weatherlink.com 1.10,2013-08-23 19:56:00,
2013-08-23 13:12:00,67.4,58.0,29.85,South,179,9.0,17.0,72,0.00,,,0.00,831,weatherlink.com 1.10,2013-08-23 20:12:00,
2013-08-23 13:26:00,67.9,58.0,29.85,South,178,13.0,17.0,71,0.00,,,0.00,587,weatherlink.com 1.10,2013-08-23 20:26:00,
2013-08-23 13:41:00,68.3,58.0,29.85,SSW,198,7.0,17.0,70,0.00,,,0.00,942,weatherlink.com 1.10,2013-08-23 20:41:00,
2013-08-23 13:57:00,68.8,58.0,29.84,SSW,207,7.0,13.0,68,0.00,,,0.00,875,weatherlink.com 1.10,2013-08-23 20:57:00,
2013-08-23 14:12:00,68.6,57.0,29.85,SW,223,16.0,16.0,67,0.00,,,0.00,819,weatherlink.com 1.10,2013-08-23 21:12:00,
2013-08-23 14:27:00,68.0,57.0,29.85,SSW,199,5.0,14.0,68,0.00,,,0.00,466,weatherlink.com 1.10,2013-08-23 21:27:00,
2013-08-23 14:42:00,68.1,58.0,29.84,SSW,194,6.0,17.0,69,0.00,,,0.00,830,weatherlink.com 1.10,2013-08-23 21:42:00,
2013-08-23 14:56:00,68.4,57.0,29.85,SW,219,8.0,14.0,68,0.00,,,0.00,694,weatherlink.com 1.10,2013-08-23 21:56:00,
2013-08-23 15:12:00,68.8,57.0,29.85,SW,214,8.0,18.0,66,0.00,,,0.00,717,weatherlink.com 1.10,2013-08-23 22:12:00,
2013-08-23 15:28:00,70.2,59.0,29.84,South,180,5.0,15.0,67,0.00,,,0.00,729,weatherlink.com 1.10,2013-08-23 22:28:00,
2013-08-23 15:43:00,70.0,58.0,29.84,SSW,211,10.0,12.0,66,0.00,,,0.00,742,weatherlink.com 1.10,2013-08-23 22:43:00,
2013-08-23 15:57:00,68.6,57.0,29.84,SW,228,5.0,11.0,67,0.00,,,0.00,281,weatherlink.com 1.10,2013-08-23 22:57:00,
2013-08-23 16:13:00,67.8,57.0,29.85,SSW,210,10.0,14.0,68,0.00,,,0.00,369,weatherlink.com 1.10,2013-08-23 23:13:00,
2013-08-23 16:28:00,68.1,57.0,29.85,SW,231,9.0,13.0,67,0.00,,,0.00,401,weatherlink.com 1.10,2013-08-23 23:28:00,
2013-08-23 16:43:00,68.3,57.0,29.84,SW,227,8.0,14.0,68,0.00,,,0.00,264,weatherlink.com 1.10,2013-08-23 23:43:00,
2013-08-23 16:58:00,68.2,58.0,29.84,SW,223,7.0,12.0,69,0.00,,,0.00,169,weatherlink.com 1.10,2013-08-23 23:58:00,
2013-08-23 17:13:00,67.9,58.0,29.84,SW,229,7.0,10.0,70,0.00,,,0.00,364,weatherlink.com 1.10,2013-08-24 00:13:00,
2013-08-23 17:28:00,69.6,59.0,29.83,South,178,4.0,12.0,68,0.00,,,0.00,455,weatherlink.com 1.10,2013-08-24 00:28:00,
2013-08-23 17:43:00,70.3,58.0,29.83,SSW,208,7.0,12.0,66,0.00,,,0.00,325,weatherlink.com 1.10,2013-08-24 00:43:00,
2013-08-23 17:59:00,69.4,58.0,29.83,SSW,211,5.0,8.0,67,0.00,,,0.00,188,weatherlink.com 1.10,2013-08-24 00:59:00,
2013-08-23 18:13:00,68.4,58.0,29.83,SW,223,4.0,8.0,69,0.00,,,0.00,130,weatherlink.com 1.10,2013-08-24 01:13:00,
2013-08-23 18:28:00,68.0,58.0,29.82,SW,217,4.0,8.0,70,0.00,,,0.00,116,weatherlink.com 1.10,2013-08-24 01:28:00,
2013-08-23 18:43:00,67.8,58.0,29.82,SSW,192,2.0,7.0,72,0.00,,,0.00,102,weatherlink.com 1.10,2013-08-24 01:43:00,
2013-08-23 18:58:00,67.3,58.0,29.82,South,173,0.0,4.0,72,0.00,,,0.00,90,weatherlink.com 1.10,2013-08-24 01:58:00,
2013-08-23 19:14:00,66.5,58.0,29.82,South,177,0.0,4.0,74,0.00,,,0.00,26,weatherlink.com 1.10,2013-08-24 02:14:00,
2013-08-23 19:29:00,66.3,58.0,29.82,South,188,2.0,2.0,74,0.00,,,0.00,12,weatherlink.com 1.10,2013-08-24 02:29:00,
2013-08-23 19:44:00,66.1,58.0,29.82,South,188,0.0,3.0,75,0.00,,,0.00,9,weatherlink.com 1.10,2013-08-24 02:44:00,
2013-08-23 19:59:00,65.8,58.0,29.83,South,188,0.0,2.0,76,0.00,,,0.00,0,weatherlink.com 1.10,2013-08-24 02:59:00,
2013-08-23 20:14:00,65.6,58.0,29.83,South,188,0.0,2.0,76,0.00,,,0.00,0,weatherlink.com 1.10,2013-08-24 03:14:00,
2013-08-23 20:29:00,65.6,59.0,29.83,South,188,0.0,0.0,78,0.00,,,0.00,0,weatherlink.com 1.10,2013-08-24 03:29:00,
2013-08-23 20:44:00,65.6,58.0,29.83,South,188,0.0,0.0,77,0.00,,,0.00,0,weatherlink.com 1.10,2013-08-24 03:44:00,
2013-08-23 20:59:00,65.5,58.0,29.84,SSW,199,0.0,2.0,77,0.00,,,0.00,0,weatherlink.com 1.10,2013-08-24 03:59:00,
2013-08-23 21:14:00,65.2,59.0,29.85,SW,226,2.0,3.0,79,0.00,,,0.00,0,weatherlink.com 1.10,2013-08-24 04:14:00,
2013-08-23 21:29:00,63.9,59.0,29.85,West,265,1.0,3.0,84,0.01,,,0.01,0,weatherlink.com 1.10,2013-08-24 04:29:00,
2013-08-23 21:44:00,62.6,59.0,29.84,West,269,4.0,4.0,87,0.01,,,0.01,0,weatherlink.com 1.10,2013-08-24 04:44:00,
2013-08-23 21:59:00,61.9,59.0,29.86,West,272,2.0,3.0,89,0.02,,,0.02,0,weatherlink.com 1.10,2013-08-24 04:59:00,
2013-08-23 22:14:00,61.4,59.0,29.85,West,280,1.0,3.0,90,0.02,,,0.02,0,weatherlink.com 1.10,2013-08-24 05:14:00,
2013-08-23 22:29:00,61.4,58.0,29.85,West,280,1.0,2.0,89,0.01,,,0.02,0,weatherlink.com 1.10,2013-08-24 05:29:00,
2013-08-23 22:44:00,61.5,58.0,29.85,West,280,3.0,3.0,88,0.02,,,0.03,0,weatherlink.com 1.10,2013-08-24 05:44:00,
2013-08-23 22:59:00,61.0,58.0,29.85,West,278,2.0,6.0,88,0.01,,,0.03,0,weatherlink.com 1.10,2013-08-24 05:59:00,
2013-08-23 23:14:00,60.2,57.0,29.85,West,276,4.0,6.0,89,0.01,,,0.03,0,weatherlink.com 1.10,2013-08-24 06:14:00,
2013-08-23 23:29:00,59.8,57.0,29.84,NW,309,5.0,6.0,91,0.01,,,0.03,0,weatherlink.com 1.10,2013-08-24 06:29:00,
2013-08-23 23:44:00,59.9,58.0,29.85,WNW,282,7.0,7.0,92,0.00,,,0.03,0,weatherlink.com 1.10,2013-08-24 06:44:00,
2013-08-23 23:59:00,59.8,58.0,29.84,WNW,283,0.0,6.0,93,0.00,,,0.03,0,weatherlink.com 1.10,2013-08-24 06:59:00,